GEFSNGP_con_prob3kmehi_168.txt.gz
EHI
0 0 0 0 0 0 0 0 0 1 1 5 9 13 16 18 16 15 17 18 18 20 21 21 17 14 10 6 6 8 10 8 7 10 11 9 7 6 8 10 9 7 5 5
0 0 0 0 0 0 0 0 0 1 3 9 14 16 18 19 18 18 19 17 16 17 19 19 16 13 11 8 8 11 13 10 9 11 12 11 9 7 6 6 6 6 5 4
0 0 0 0 0 0 0 1 1 2 5 12 18 21 21 20 21 23 22 19 16 15 16 15 12 10 10 10 10 11 11 9 9 10 11 11 11 9 6 4 4 6 5 3
0 0 0 0 0 0 1 3 4 5 8 15 21 25 25 24 25 26 25 21 18 16 14 12 10 9 9 10 9 8 7 7 7 8 8 9 10 9 7 5 4 6 6 4
0 0 0 0 0 1 2 4 6 10 15 20 23 25 26 26 26 25 22 19 16 14 11 10 11 12 11 10 8 7 8 8 7 6 7 8 7 6 5 5 5 6 6 5
0 0 0 0 1 1 2 3 7 13 20 20 19 22 25 24 21 18 15 13 10 8 7 8 12 15 14 11 9 9 9 8 7 7 7 8 7 6 5 5 6 6 6 5
0 0 0 0 1 2 3 4 8 15 19 17 17 22 25 21 16 13 11 8 6 5 5 7 10 13 13 12 10 9 8 7 7 7 8 8 8 8 7 7 7 6 6 6
1 1 0 0 2 4 5 7 11 15 18 18 20 22 20 16 14 13 11 7 4 4 5 7 9 10 10 10 10 9 8 7 7 8 9 9 9 9 9 9 7 6 7 8
2 1 0 1 3 7 8 10 13 16 19 19 18 15 11 9 9 10 10 7 4 5 6 8 9 9 9 9 9 9 9 8 7 7 8 9 10 11 11 9 7 6 7 8
2 1 0 1 4 7 9 12 14 15 15 14 11 6 4 3 4 5 7 7 6 6 6 7 8 8 7 8 9 9 10 10 8 7 7 9 10 10 9 7 6 6 7 8
1 0 1 1 3 6 10 12 12 10 9 7 4 2 1 1 0 1 3 6 7 6 6 6 6 5 5 6 8 9 11 12 10 8 7 8 8 6 5 4 4 4 6 7
0 1 2 3 3 6 9 9 7 5 3 2 1 0 0 0 0 0 1 2 4 4 3 3 3 3 4 6 7 9 11 12 12 10 8 6 5 4 2 1 1 1 2 3
1 2 3 3 2 3 4 4 3 2 1 0 0 0 0 0 0 0 1 1 1 1 1 1 1 1 3 5 6 8 9 10 11 11 9 6 4 3 1 0 0 0 0 0
2 2 2 1 1 1 1 1 1 1 0 0 0 1 0 0 0 0 1 1 0 0 0 0 0 0 1 3 4 6 6 6 7 8 6 4 3 3 2 1 0 0 0 0
2 2 1 0 0 0 0 0 0 0 0 0 0 0 0 0 0 0 1 1 0 0 0 0 0 0 0 1 2 3 3 3 3 4 4 3 3 3 2 1 0 0 0 0
1 1 0 0 0 0 0 0 0 0 0 0 0 0 0 0 0 0 0 0 0 0 0 0 0 0 0 0 1 1 1 1 1 2 2 2 2 1 1 0 0 0 0 0
0 0 0 0 0 0 0 0 0 0 0 0 0 0 0 0 0 0 0 0 0 0 0 0 0 0 0 0 0 0 0 0 0 1 1 1 1 0 0 0 0 0 0 0
0 0 0 0 0 0 0 0 0 0 0 0 0 0 0 0 0 0 0 0 0 0 0 0 0 0 0 0 0 0 0 0 0 0 0 0 0 0 0 0 0 0 0 0
0 0 0 0 0 0 0 0 0 0 0 0 0 0 0 0 0 0 0 0 0 0 0 0 0 0 0 0 0 0 0 0 0 0 0 0 0 0 0 0 0 0 0 0
0 0 0 0 0 0 0 0 0 0 0 0 0 0 0 0 0 0 0 0 0 0 0 0 0 0 0 0 0 0 0 0 0 0 0 0 0 0 0 0 0 0 0 0
0 0 0 0 0 0 0 0 0 0 0 0 0 0 0 0 0 0 0 0 0 0 0 0 0 0 0 0 0 0 0 0 0 0 0 0 0 0 0 0 0 0 0 0
0 0 0 0 0 0 0 0 0 0 0 0 0 0 0 0 0 0 0 0 0 0 0 0 0 0 0 0 0 0 0 0 0 0 0 0 0 0 0 0 0 0 0 0
0 0 0 0 0 0 0 0 0 0 0 0 0 0 0 0 0 0 0 0 0 0 0 0 0 0 0 0 0 0 0 0 0 0 0 0 0 0 0 0 0 0 0 0
0 0 0 0 0 0 0 0 0 0 0 0 0 0 0 0 0 0 0 0 0 0 0 0 0 0 0 0 0 0 0 0 0 0 0 0 0 0 0 0 0 0 0 0
0 0 0 0 0 0 0 0 0 0 0 0 0 0 0 0 0 0 0 0 0 0 0 0 0 0 0 0 0 0 0 0 0 0 0 0 0 0 0 0 0 0 0 0
0 0 0 0 0 0 0 0 0 0 0 0 0 0 0 0 0 0 0 0 0 0 0 0 0 0 0 0 0 0 0 0 0 0 0 0 0 0 0 0 0 0 0 0
0 0 0 0 0 0 0 0 0 0 0 0 0 0 0 0 0 0 0 0 0 0 0 0 0 0 0 0 0 0 0 0 0 0 0 0 0 0 0 0 0 0 0 0

GEFSNGP_con_prob3kmehi_174.txt.gz
EHI
0 0 0 0 0 0 0 0 1 4 9 13 16 19 25 33 38 39 42 47 51 52 52 50 46 45 45 45 43 40 37 35 33 31 29 27 25 25 24 20 16 16 16 16
0 0 0 0 0 0 0 0 2 6 11 17 22 26 30 34 38 40 40 43 47 50 49 47 43 40 40 41 40 37 32 30 29 27 26 26 23 22 22 20 18 18 17 16
0 0 0 0 0 0 1 2 5 9 14 22 33 37 37 37 39 42 41 40 45 48 47 43 38 34 33 35 36 32 26 23 23 22 23 24 22 20 21 22 22 22 19 16
0 0 0 0 0 1 4 7 9 13 19 29 40 43 41 41 43 44 43 42 44 45 43 39 35 30 29 30 30 27 22 20 20 20 21 23 22 22 23 24 25 25 20 16
0 0 0 2 3 5 9 13 14 18 25 32 36 37 39 44 47 47 44 44 44 41 40 40 36 31 27 25 24 22 20 19 19 19 20 21 22 23 24 24 24 23 19 16
0 0 2 4 6 8 12 16 20 24 28 31 30 32 38 47 51 48 46 45 44 41 40 41 39 32 27 22 19 18 17 17 16 16 16 18 21 24 24 22 19 17 16 16
0 1 4 7 7 10 16 24 28 29 31 34 36 36 42 48 49 47 44 42 40 38 36 35 34 29 23 18 15 14 13 13 13 13 12 14 18 21 21 19 15 13 13 14
2 4 8 12 13 17 28 35 34 32 35 40 40 39 41 43 43 41 38 35 32 30 28 27 25 22 18 14 12 11 11 11 11 11 9 11 15 17 16 15 14 13 13 13
8 9 13 18 20 25 33 37 33 32 35 37 36 34 34 34 34 32 29 26 23 22 21 20 19 17 15 12 10 11 12 12 12 11 10 11 14 14 12 11 12 12 12 12
10 10 13 16 20 21 26 29 30 32 32 31 29 28 28 27 25 23 20 16 15 15 14 14 14 13 12 10 10 12 14 15 14 12 10 12 14 11 9 8 9 9 9 9
5 6 7 10 13 15 18 24 28 30 29 26 25 24 23 20 17 15 12 9 9 10 10 9 8 8 8 8 9 11 14 15 15 11 8 9 9 6 5 5 5 5 5 5
2 3 4 6 8 12 16 20 24 26 23 19 17 17 14 11 9 7 6 5 5 6 6 5 5 5 5 5 6 7 11 13 13 9 7 6 5 2 1 1 1 1 1 1
6 6 6 7 9 13 15 16 18 17 13 9 8 7 5 4 3 3 3 3 3 3 3 3 2 3 3 2 2 3 7 10 10 9 7 6 5 2 0 0 0 0 0 0
9 8 9 10 11 12 12 12 12 9 5 3 2 2 1 1 1 2 2 2 1 1 1 1 1 1 1 0 0 2 4 5 7 8 7 7 7 4 1 0 0 0 0 0
8 8 8 9 8 7 7 7 6 5 3 2 2 1 0 0 1 2 2 1 0 0 0 0 0 0 0 0 0 1 2 3 4 6 7 7 6 4 2 0 0 0 0 1
5 5 4 4 3 2 2 3 3 3 3 3 3 2 0 0 0 1 1 0 0 1 1 0 0 0 0 0 0 0 1 1 2 4 5 5 5 3 1 0 0 0 1 2
2 1 1 1 0 0 0 1 1 1 2 3 3 1 0 0 0 0 0 0 1 2 2 1 0 0 0 0 0 0 0 0 0 1 2 3 3 1 0 0 0 1 2 2
0 0 0 0 0 0 0 0 0 0 0 1 1 1 0 0 0 0 0 0 1 2 2 1 0 0 0 0 0 0 0 0 0 0 0 1 1 0 0 0 0 1 1 1
0 0 0 0 0 0 0 0 0 0 0 0 0 0 0 0 0 0 0 0 0 1 1 1 0 0 0 0 0 0 0 0 0 0 0 0 0 0 0 0 0 0 0 0
0 0 0 0 0 0 0 0 0 0 0 0 0 0 0 0 0 0 0 1 0 0 0 0 0 0 0 0 0 0 0 0 0 0 0 0 0 0 0 0 0 0 0 0
0 0 0 0 0 0 0 0 0 0 0 0 0 0 0 0 0 0 0 0 0 0 0 0 0 0 0 0 0 0 0 0 0 0 0 0 0 0 0 0 0 0 0 0
0 0 0 0 0 0 0 0 0 0 0 0 0 0 0 0 0 0 0 0 0 0 0 0 0 0 0 0 0 0 0 0 0 0 0 0 0 0 0 0 0 0 0 0
0 0 0 0 0 0 0 0 0 0 0 0 0 0 0 0 0 0 0 0 0 0 0 0 0 0 0 0 0 0 0 0 0 0 0 0 0 0 0 0 0 0 0 0
0 0 0 0 0 0 0 0 0 0 0 0 0 0 0 0 0 0 0 0 0 0 0 0 0 0 0 0 0 0 0 0 0 0 0 0 0 0 0 0 0 0 0 0
0 0 0 0 0 0 0 0 0 0 0 0 0 0 0 0 0 0 0 0 0 0 0 0 0 0 0 0 0 0 0 0 0 0 0 0 0 0 0 0 0 0 0 0
0 0 0 0 0 0 0 0 0 0 0 0 0 0 0 0 0 0 0 0 0 0 0 0 0 0 0 0 0 0 0 0 0 0 0 0 0 0 0 0 0 0 0 0
0 0 0 0 0 0 0 0 0 0 0 0 0 0 0 0 0 0 0 0 0 0 0 0 0 0 0 0 0 0 0 0 0 0 0 0 0 0 0 0 0 0 0 0

GEFSNGP_con_prob3kmehi_180.txt.gz
EHI
0 0 0 0 0 0 0 0 0 1 2 5 9 15 22 29 35 39 40 40 38 35 34 34 32 29 27 25 25 26 26 25 19 11 7 7 5 5 5 4 3 3 3 3
0 0 0 0 0 0 0 0 1 3 5 9 13 18 25 32 36 38 39 38 35 33 32 31 29 26 23 22 22 23 22 20 15 9 6 5 4 4 4 4 3 3 3 3
0 0 0 0 0 0 1 1 3 6 11 16 20 23 26 30 33 34 33 33 31 29 28 26 23 21 18 17 18 18 16 14 11 8 5 3 1 2 3 3 3 3 3 3
0 0 0 0 0 1 2 4 7 12 17 23 27 28 26 25 26 27 28 28 27 26 24 21 19 17 16 15 15 14 11 9 8 7 6 3 2 2 2 2 3 3 3 3
0 0 0 0 2 4 7 10 13 17 23 27 30 31 27 22 23 25 25 26 25 24 22 19 17 16 15 15 14 12 10 8 7 7 6 5 4 3 3 3 3 3 3 3
0 0 0 2 6 9 11 15 17 21 25 27 27 27 25 25 26 27 28 26 24 22 21 19 15 14 14 14 13 12 10 8 7 6 7 5 4 4 4 4 3 3 3 3
0 0 1 4 9 10 10 14 19 21 23 23 23 23 23 25 27 28 28 26 24 22 19 16 13 12 12 11 11 10 9 7 7 6 6 4 4 5 5 4 4 3 3 3
0 0 1 3 7 6 6 10 16 18 19 19 19 20 20 21 22 22 23 23 22 19 15 11 9 8 8 8 8 8 7 6 6 5 4 3 4 5 4 4 3 3 3 3
0 1 1 2 3 4 5 8 10 12 13 14 16 17 17 16 16 16 16 16 14 13 9 5 4 4 4 4 5 6 6 5 4 4 3 3 3 4 3 3 3 3 3 3
1 1 1 1 1 2 5 6 6 7 8 11 14 15 15 13 12 12 11 9 7 6 4 1 1 1 1 1 2 4 4 4 3 3 3 3 3 2 3 3 3 3 3 3
0 1 1 0 0 1 3 5 5 5 7 11 13 14 13 10 8 7 6 4 3 2 1 0 0 0 0 0 0 1 2 3 3 3 3 3 1 1 1 2 2 2 2 2
0 0 0 0 0 0 2 4 5 6 9 10 11 11 9 7 5 3 2 1 0 0 0 0 0 0 0 0 0 0 1 3 3 3 3 2 1 0 0 1 1 1 1 1
0 0 0 1 1 1 3 5 6 7 8 8 7 6 5 3 2 1 0 0 0 0 0 0 0 0 0 0 0 0 1 2 3 3 3 3 1 0 0 0 0 0 0 0
0 0 1 2 2 3 4 5 5 5 4 4 3 2 1 1 0 0 0 0 0 0 0 0 0 0 0 0 0 0 0 1 1 2 2 2 1 0 0 0 0 0 0 0
0 0 1 2 2 3 3 2 2 1 1 1 1 0 0 0 0 0 0 0 0 0 0 0 0 0 0 0 0 0 0 0 0 1 1 1 1 0 0 0 0 0 0 0
0 0 1 1 1 1 1 0 0 0 0 0 0 0 0 0 0 0 0 0 0 0 0 0 0 0 0 0 0 0 0 0 0 0 0 0 0 0 0 0 0 0 0 0
0 0 0 0 0 0 0 0 0 0 0 0 0 0 0 0 0 0 0 0 0 0 0 0 0 0 0 0 0 0 0 0 0 0 0 0 0 0 0 0 0 0 0 0
0 0 0 0 0 0 0 0 0 0 0 0 0 0 0 0 0 0 0 0 0 0 0 0 0 0 0 0 0 0 0 0 0 0 0 0 0 0 0 0 0 0 0 0
1 0 0 0 0 0 0 0 0 0 0 0 0 0 0 0 0 0 0 0 0 0 0 0 0 0 0 0 0 0 0 0 0 0 0 0 0 0 0 0 0 0 0 0
1 0 0 0 0 0 0 0 0 0 0 0 0 0 0 0 0 0 0 0 0 0 0 0 0 0 0 0 0 0 0 0 0 0 0 0 0 0 0 0 0 0 0 0
1 0 0 0 0 0 0 0 0 0 0 0 0 0 0 0 0 0 0 0 0 0 0 0 0 0 0 0 0 0 0 0 0 0 0 0 0 0 0 0 0 0 0 0
0 0 0 0 0 0 0 0 0 0 0 0 0 0 0 0 0 0 0 0 0 0 0 0 0 0 0 0 0 0 0 0 0 0 0 0 0 0 0 0 0 0 0 0
0 0 0 0 0 0 0 0 0 0 0 0 0 0 0 0 0 0 0 0 0 0 0 0 0 0 0 0 0 0 0 0 0 0 0 0 0 0 0 0 0 0 0 0
0 0 0 0 0 0 0 0 0 0 0 0 0 0 0 0 0 0 0 0 0 0 0 0 0 0 0 0 0 0 0 0 0 0 0 0 0 0 0 0 0 0 0 0
0 0 0 0 0 0 0 0 0 0 0 0 0 0 0 0 0 0 0 0 0 0 0 0 0 0 0 0 0 0 0 0 0 0 0 0 0 0 0 0 0 0 0 0
0 0 0 0 0 0 0 0 0 0 0 0 0 0 0 0 0 0 0 0 0 0 0 0 0 0 0 0 0 0 0 0 0 0 0 0 0 0 0 0 0 0 0 0
0 0 0 0 0 0 0 0 0 0 0 0 0 0 0 0 0 0 0 0 0 0 0 0 0 0 0 0 0 0 0 0 0 0 0 0 0 0 0 0 0 0 0 0

GEFSNGP_con_prob3kmehi_186.txt.gz
EHI
0 0 0 0 0 0 0 0 0 0 0 0 2 6 9 10 14 16 18 20 21 22 23 22 18 16 15 15 18 20 19 15 11 9 6 3 2 1 0 0 0 0 0 0
0 0 0 0 0 0 0 0 0 0 0 0 2 5 8 11 13 14 15 17 18 20 21 18 16 15 15 15 17 18 17 14 12 9 6 3 1 0 0 0 0 0 0 0
0 0 0 0 0 0 0 0 0 0 0 0 3 5 8 11 13 11 10 11 14 17 17 16 14 14 15 15 16 16 16 15 13 10 7 3 1 0 0 0 0 0 0 0
0 0 0 0 0 0 0 1 1 1 1 3 7 9 9 9 10 8 6 7 11 14 14 15 14 14 14 14 14 15 15 15 13 10 6 3 1 0 0 0 0 0 0 0
0 0 0 0 0 0 0 1 1 1 2 6 10 10 8 6 5 5 5 7 10 12 12 13 13 13 12 11 11 11 11 12 12 9 6 3 2 1 0 0 0 0 0 0
0 0 0 0 0 0 0 0 0 0 2 6 8 6 4 5 5 5 5 7 10 11 10 10 10 10 8 7 7 7 7 8 9 7 4 3 2 1 0 0 0 0 0 0
0 0 0 0 0 0 0 0 0 1 3 5 5 4 5 6 7 7 7 7 9 9 8 7 7 6 5 4 4 3 3 3 4 3 2 1 1 0 0 0 0 0 0 0
0 0 0 0 1 1 0 0 1 2 4 5 6 6 7 9 10 9 8 8 8 7 7 5 5 5 4 3 2 1 1 1 2 1 1 0 0 0 0 0 0 0 0 0
0 0 0 0 1 1 0 0 1 2 3 5 6 7 8 9 11 10 9 8 8 7 7 5 4 4 3 2 1 0 0 1 2 1 1 0 0 0 0 0 0 0 0 0
0 0 0 0 1 1 0 1 1 1 2 4 5 6 7 9 10 10 9 8 6 6 6 4 2 2 1 1 0 0 0 1 1 0 0 0 0 0 0 0 0 0 0 0
0 0 0 0 0 0 0 1 1 2 3 3 3 4 5 8 9 8 7 5 4 3 3 2 1 0 0 0 0 0 0 0 0 0 0 0 0 0 0 0 0 0 0 0
0 0 0 0 0 0 0 0 1 2 3 3 2 2 3 5 6 5 3 2 1 1 1 0 0 0 0 0 0 0 0 0 0 0 0 0 0 0 0 0 0 0 0 0
0 0 0 0 0 0 0 0 0 1 1 1 1 1 2 3 3 2 1 1 0 0 0 0 0 0 0 0 0 0 0 0 0 0 0 0 0 0 0 0 0 0 0 0
0 0 0 1 0 0 0 0 0 0 0 0 0 1 1 1 1 1 0 0 0 0 0 0 0 0 0 0 0 0 0 0 0 0 0 0 0 0 0 0 0 0 0 0
0 0 0 0 0 0 0 0 0 0 0 0 0 0 0 0 0 0 0 0 0 0 0 0 0 0 0 0 0 0 0 0 0 0 0 0 0 0 0 0 0 0 0 0
0 0 0 0 0 0 0 0 0 0 0 0 0 0 0 0 0 0 0 0 0 0 0 0 0 0 0 0 0 0 0 0 0 0 0 0 0 0 0 0 0 0 0 0
0 0 0 0 0 0 0 1 1 1 1 1 0 0 0 0 0 0 0 0 0 0 0 0 0 0 0 0 0 0 0 0 0 0 0 0 0 0 0 0 0 0 0 0
0 0 0 0 0 0 1 2 2 2 2 1 0 0 0 0 0 0 0 0 0 0 0 0 0 0 0 0 0 0 0 0 0 0 0 0 0 0 0 0 0 0 0 0
0 0 0 0 0 0 1 2 2 1 1 0 0 0 0 0 0 0 0 0 0 0 0 0 0 0 0 0 0 0 0 0 0 0 0 0 0 0 0 0 0 0 0 0
0 0 0 0 0 0 1 1 1 0 0 0 0 0 0 0 0 0 0 0 0 0 0 0 0 0 0 0 0 0 0 0 0 0 0 0 0 0 0 0 0 0 0 0
0 0 0 0 0 0 0 0 0 0 0 0 0 0 0 0 0 0 0 0 0 0 0 0 0 0 0 0 0 0 0 0 0 0 0 0 0 0 0 0 0 0 0 0
0 0 0 0 0 0 0 0 0 0 0 0 0 0 0 0 0 0 0 0 0 0 0 0 0 0 0 0 0 0 0 0 0 0 0 0 0 0 0 0 0 0 0 0
0 0 0 0 0 0 0 0 0 0 0 0 0 0 0 0 0 0 0 0 0 0 0 0 0 0 0 0 0 0 0 0 0 0 0 0 0 0 0 0 0 0 0 0
0 0 0 0 0 0 0 0 0 0 0 0 0 0 0 0 0 0 0 0 0 0 0 0 0 0 0 0 0 0 0 0 0 0 0 0 0 0 0 0 0 0 0 0
0 0 0 0 0 0 0 0 0 0 0 0 0 0 0 0 0 0 0 0 0 0 0 0 0 0 0 0 0 0 0 0 0 0 0 0 0 0 0 0 0 0 0 0
0 0 0 0 0 0 0 0 0 0 0 0 0 0 0 0 0 0 0 0 0 0 0 0 0 0 0 0 0 0 0 0 0 0 0 0 0 0 0 0 0 0 0 0
0 0 0 0 0 0 0 0 0 0 0 0 0 0 0 0 0 0 0 0 0 0 0 0 0 0 0 0 0 0 0 0 0 0 0 0 0 0 0 0 0 0 0 0

GEFSNGP_con_prob3kmehi_192.txt.gz
EHI
0 0 0 0 0 0 0 0 0 0 1 5 11 17 24 31 36 37 34 33 35 39 40 41 42 45 47 47 46 43 37 32 31 30 29 29 29 25 20 16 16 18 16 14
0 0 0 0 0 0 0 0 0 0 2 7 12 19 25 31 36 37 34 33 36 40 41 42 43 44 46 46 43 38 32 27 24 24 25 25 23 19 15 13 14 16 15 13
0 0 0 0 0 0 0 0 0 1 4 9 15 21 25 30 35 38 36 34 35 36 38 40 40 41 42 41 37 32 26 21 19 20 20 19 18 15 12 11 13 13 11 10
0 0 0 1 1 1 1 1 1 2 5 9 15 19 22 25 31 37 38 33 30 30 31 33 34 34 34 33 29 26 22 19 19 19 19 18 19 19 16 13 13 11 8 6
0 0 0 1 2 3 3 2 2 4 6 9 12 14 15 18 26 34 35 29 27 26 27 28 29 28 28 25 22 20 19 18 19 20 19 20 21 21 19 17 16 12 8 5
0 0 1 2 4 5 4 4 5 8 11 11 10 13 16 18 25 31 30 27 26 27 27 27 28 28 26 23 21 19 18 18 18 19 19 19 19 19 19 19 17 14 10 8
0 0 1 4 6 6 7 7 9 11 15 15 14 18 22 24 27 29 29 26 26 27 26 25 25 27 27 25 24 22 19 18 17 17 16 16 17 18 18 17 15 13 11 8
1 1 3 7 9 10 10 11 11 13 17 18 19 23 26 27 26 27 28 26 25 25 22 20 21 24 25 24 23 21 19 16 15 14 12 13 15 15 15 14 12 10 7 5
5 5 7 10 13 14 13 12 12 14 16 18 18 20 22 22 21 23 24 22 21 20 19 19 20 21 20 18 17 15 14 13 12 11 11 11 11 9 8 9 9 6 3 1
10 10 10 11 13 13 12 11 12 13 13 14 13 13 14 15 16 18 18 18 18 18 18 19 19 18 16 14 11 9 9 9 9 9 9 8 7 4 3 3 4 3 1 0
10 10 11 11 10 10 10 9 9 10 10 12 12 10 10 12 13 14 15 16 16 16 16 16 16 14 13 11 9 7 6 6 5 6 5 4 3 1 1 1 1 0 0 0
9 10 10 9 8 8 9 8 6 7 10 12 12 10 9 10 11 12 14 14 14 13 13 12 10 9 9 8 7 6 5 3 2 2 1 1 1 0 0 0 0 0 0 0
8 8 8 7 7 8 7 6 6 6 9 11 11 10 8 7 8 10 11 12 11 10 9 7 5 5 5 5 4 3 2 1 0 0 0 0 0 0 0 0 0 0 0 0
6 6 5 6 7 6 5 5 6 6 7 8 9 8 7 6 7 8 9 9 8 6 3 2 2 3 2 1 1 0 0 0 0 0 0 0 0 0 0 0 0 0 0 0
4 3 3 5 5 4 3 3 4 5 5 6 6 6 5 4 5 6 8 7 4 2 0 0 1 1 0 0 0 0 0 0 0 0 0 0 0 0 0 0 0 0 0 0
2 2 2 4 4 3 3 2 3 4 4 4 4 4 3 3 3 4 5 4 3 1 0 0 0 0 0 0 0 0 0 0 0 0 0 0 0 0 0 0 0 0 0 0
2 2 2 2 2 2 2 3 3 3 3 3 3 3 3 3 3 3 3 2 2 1 0 0 0 0 0 0 0 0 0 0 0 0 0 0 0 0 0 0 0 0 0 0
2 2 1 1 1 1 2 3 3 3 3 3 3 3 3 3 2 2 1 1 1 1 0 0 0 0 0 0 0 0 0 0 0 0 0 0 0 0 0 0 0 0 0 0
1 1 0 0 0 1 1 1 1 2 2 2 2 2 2 1 1 1 0 0 0 0 0 0 0 0 0 0 0 0 0 0 0 0 0 0 0 0 0 0 0 0 0 0
0 0 0 0 0 0 0 0 0 1 1 1 1 1 1 0 0 0 0 0 0 0 0 0 0 0 0 0 0 0 0 0 0 0 0 0 0 0 0 0 0 0 0 0
0 0 0 0 1 1 1 1 1 1 0 0 0 0 0 0 0 0 0 0 0 0 0 0 0 0 0 0 0 0 0 0 0 0 0 0 0 0 0 0 0 0 0 0
0 0 0 0 1 2 2 2 2 1 0 0 0 0 0 0 0 0 0 0 0 0 0 0 0 0 0 0 0 0 0 0 0 0 0 0 0 0 0 0 0 0 0 0
0 0 0 0 1 1 1 1 1 1 0 0 0 0 0 0 0 0 0 0 0 0 0 0 0 0 0 0 0 0 0 0 0 0 0 0 0 0 0 0 0 0 0 0
0 0 0 0 0 0 0 0 0 0 0 0 0 0 0 0 0 0 0 0 0 0 0 0 0 0 0 0 0 0 0 0 0 0 0 0 0 0 0 0 0 0 0 0
0 0 0 0 0 0 0 0 0 0 0 0 0 0 0 0 0 0 0 0 0 0 0 0 0 0 0 0 0 0 0 0 0 0 0 0 0 0 0 0 0 0 0 0
0 0 0 0 0 0 0 0 0 0 0 0 0 0 0 0 0 0 0 0 0 0 0 0 0 0 0 0 0 0 0 0 0 0 0 0 0 0 0 0 0 0 0 0
0 0 0 0 0 0 0 0 0 0 0 0 0 0 0 0 0 0 0 0 0 0 0 0 0 0 0 0 0 0 0 0 0 0 0 0 0 0 0 0 0 0 0 0